Temperature
13 13 13 13 13 13 12 12 12 12 11 11 11 11 11 11 11 10 10 10 10 10 10 10 10 9 9 9 9 9 9 8 8 8 8 8 8 8 8 8 8 8 8
13 13 13 13 13 13 12 12 12 11 11 11 11 11 11 11 10 10 10 10 10 10 9 9 9 9 9 9 9 8 8 8 8 7 7 7 8 8 8 8 8 8 8
12 12 12 12 12 12 12 12 11 11 11 11 10 10 10 10 10 10 10 9 9 9 9 9 9 9 9 9 8 8 8 8 7 7 7 6 7 7 7 7 8 8 7
12 12 12 12 12 12 11 11 11 11 10 10 10 10 10 10 10 10 9 9 9 9 9 9 9 9 9 8 8 8 8 7 7 7 7 6 6 6 6 7 7 7 7
11 11 11 11 11 11 11 11 10 10 10 10 10 9 9 9 9 9 9 9 9 8 8 8 8 8 8 8 8 8 7 7 7 7 7 6 6 6 6 6 6 6 7
11 11 11 11 11 11 10 10 10 10 9 9 9 9 9 9 9 9 8 8 8 8 8 8 8 8 8 8 8 7 7 7 7 7 7 6 6 6 6 6 6 6 6
10 10 10 10 10 10 10 10 9 9 9 9 9 9 9 9 8 8 8 8 8 8 8 8 8 8 8 7 7 7 7 7 7 7 7 6 6 6 6 6 5 5 5
10 10 10 9 9 9 9 9 9 9 9 8 8 8 8 8 8 8 8 8 8 8 8 8 8 7 7 7 7 7 7 7 7 6 6 6 6 6 6 5 5 5 5
9 9 9 9 9 9 9 9 8 8 8 8 8 8 8 8 8 8 8 8 8 8 7 7 7 7 7 7 7 7 6 6 6 6 6 6 6 6 5 5 5 5 4
8 8 8 8 8 8 8 8 8 8 8 8 8 7 7 8 8 7 7 7 7 7 7 7 7 7 7 6 6 6 6 6 6 6 6 5 5 5 5 5 5 5 5
7 7 7 7 7 7 7 7 7 7 7 7 7 7 7 7 7 7 7 7 7 7 7 6 6 6 6 6 6 6 6 6 6 5 5 5 5 5 5 5 5 5 5
6 6 7 6 6 6 6 7 7 7 7 7 7 7 7 7 7 7 7 6 6 6 6 6 6 6 6 6 6 6 6 5 5 5 5 5 5 5 5 5 5 5 4
5 5 6 6 6 6 6 6 6 6 6 6 6 6 6 6 6 6 6 6 6 6 6 6 6 6 6 6 5 5 5 5 5 5 5 5 5 4 5 4 4 4 4
5 5 5 5 5 5 5 5 5 6 6 6 6 6 6 6 6 6 6 6 6 6 6 5 5 5 5 5 5 5 5 5 5 5 5 4 4 4 4 4 4 4 4
4 4 4 4 5 5 5 5 5 5 5 5 5 5 5 6 6 6 6 5 5 5 5 5 5 5 5 5 5 5 5 5 5 5 4 4 4 4 4 4 4 4 4
3 3 4 4 4 4 4 4 5 5 5 5 5 5 5 5 5 5 5 5 5 5 5 5 5 5 5 5 5 5 5 4 4 4 4 4 4 4 4 4 4 3 3
3 3 3 4 4 4 4 4 4 4 4 5 5 5 5 5 5 5 5 5 5 5 4 4 4 4 5 4 5 4 4 4 4 4 4 4 4 4 3 3 3 3 3
3 3 3 3 3 4 4 4 4 4 4 4 4 4 4 5 5 5 4 4 4 4 4 4 4 4 4 4 4 4 4 4 4 4 3 3 3 3 3 3 3 3 3
3 3 3 3 3 3 3 3 4 4 4 4 4 4 4 4 4 4 4 4 4 4 4 4 4 4 4 4 4 4 4 4 3 3 3 3 3 3 3 3 3 2 2
3 3 3 3 3 3 3 3 3 3 3 4 4 4 4 4 4 4 4 4 4 4 4 4 4 4 4 4 4 4 3 3 3 3 3 3 2 2 2 2 2 2 2
2 2 2 2 2 2 2 2 3 3 3 3 3 3 4 4 4 4 4 3 3 3 3 3 3 3 3 3 3 3 3 3 3 2 2 2 2 2 2 2 2 2 2
2 2 2 2 2 2 2 2 2 2 2 2 3 3 3 3 3 3 3 3 3 3 3 3 3 3 3 3 3 3 3 3 2 2 2 2 2 2 2 1 1 1 1
1 1 1 1 1 1 1 2 2 2 2 2 2 2 2 3 3 3 3 3 3 2 2 2 2 2 2 2 2 2 2 2 2 2 2 1 1 1 1 1 1 1 1
0 0 0 1 1 1 1 1 1 1 1 2 2 2 2 2 2 2 2 2 2 2 2 2 2 2 2 2 2 2 2 1 2 1 1 1 1 1 1 0 0 0 0
-0 -0 -0 0 0 0 0 1 1 1 1 1 1 1 2 2 2 2 2 2 2 1 1 1 1 1 1 1 1 1 1 1 1 1 1 1 1 1 0 0 0 -0 -0
-1 -1 -1 -1 -0 -0 -0 0 0 0 0 1 1 1 1 1 1 1 1 1 1 1 1 1 1 1 1 1 1 1 1 1 1 1 1 0 0 0 -0 -0 -0 -0 -0
Wind_Speed
8 7 7 7 7 7 7 7 6 5 4 3 3 2 2 2 2 2 2 2 2 2 2 2 2 2 2 2 2 1 2 2 1 2 4 4 4 4 4 3 3 4 5
5 5 6 6 7 8 8 7 7 6 5 4 4 3 3 2 3 2 2 2 2 2 2 2 2 2 2 2 2 1 1 2 1 0 2 3 4 3 3 3 3 4 3
8 7 7 7 7 7 7 7 7 6 5 4 2 1 1 1 0 1 2 2 2 3 2 3 2 2 2 3 3 3 2 2 2 1 1 1 3 4 3 3 3 3 3
7 7 7 8 8 7 6 6 6 6 5 5 4 4 3 2 2 2 2 2 2 2 3 3 3 3 2 3 3 3 2 2 2 2 2 3 3 2 3 3 2 3 4
7 8 8 8 7 6 6 5 5 5 5 5 5 5 3 2 1 1 2 2 2 2 3 3 2 3 3 3 3 3 3 3 3 2 2 2 2 3 3 5 5 4 3
5 6 6 6 5 4 4 4 5 4 4 5 4 5 4 3 1 1 2 2 2 2 3 3 2 3 3 4 4 4 4 4 4 3 3 2 2 3 2 3 5 5 4
5 5 6 5 5 4 4 5 5 4 3 4 4 5 5 4 4 3 3 3 2 2 3 3 3 3 3 3 3 3 4 4 4 4 4 3 4 3 3 3 4 5 4
4 5 6 6 5 5 4 4 5 4 3 4 3 3 3 3 3 3 3 3 3 3 3 3 3 3 3 3 3 3 3 3 4 4 4 3 3 2 2 2 3 4 4
3 4 4 5 5 4 4 5 5 4 3 3 3 2 2 3 3 3 2 2 2 2 2 2 2 2 2 3 2 2 3 3 3 3 4 3 3 2 3 2 2 2 4
2 2 3 3 3 3 2 3 4 4 3 3 2 2 2 2 2 1 2 2 2 2 2 2 2 2 2 2 2 2 3 3 3 2 3 3 3 2 2 2 3 3 3
2 2 2 2 2 2 2 2 2 2 2 2 2 1 2 2 1 1 2 2 2 2 2 2 2 2 2 2 2 2 2 2 2 2 3 3 3 2 2 2 2 2 2
3 3 3 3 3 2 2 1 1 2 2 2 2 2 1 1 1 1 2 2 2 2 2 2 2 2 2 2 2 3 2 2 2 2 2 3 2 2 2 1 2 2 1
4 4 4 3 2 2 1 1 1 1 1 1 2 1 1 1 2 2 2 2 1 1 1 1 1 2 2 2 2 2 2 2 2 2 2 2 2 2 2 2 2 1 1
3 3 3 2 2 2 1 1 1 1 1 1 1 2 2 2 2 2 2 2 1 1 1 1 1 2 2 2 2 2 1 1 2 1 2 2 2 2 2 2 1 1 1
2 2 2 2 2 2 2 2 1 1 1 1 1 2 2 2 2 2 2 1 1 1 1 1 1 1 1 2 1 1 1 1 1 1 1 1 1 2 1 1 1 0 1
1 2 2 2 2 2 2 2 2 2 1 1 2 2 2 1 1 1 1 1 1 1 0 1 1 1 1 2 1 1 0 1 1 1 2 1 1 2 2 2 2 1 1
1 1 2 2 2 2 2 2 2 2 1 1 1 1 0 1 2 1 1 1 1 1 0 1 1 1 2 2 1 1 0 0 1 1 1 2 2 2 1 2 3 3 4
1 1 1 2 3 2 2 2 2 1 1 1 1 1 1 1 1 0 1 1 1 1 1 1 1 1 2 2 2 1 0 0 0 0 0 0 1 1 2 2 3 3 4
1 1 1 2 2 2 2 2 2 2 1 1 2 2 1 1 0 0 0 1 0 1 1 1 1 1 2 2 2 2 0 1 1 1 1 1 1 2 3 3 3 4 4
1 1 1 2 1 1 1 1 2 2 2 2 2 2 1 1 1 1 0 1 0 1 1 1 1 1 1 2 2 2 1 1 1 1 1 2 2 3 3 3 2 2 3
1 1 1 1 1 1 1 1 2 2 3 3 2 2 1 0 1 1 1 1 1 1 1 1 1 1 2 3 3 2 1 1 1 1 1 1 3 3 4 4 3 3 3
2 1 1 2 1 1 1 1 2 3 2 2 2 1 2 1 1 2 1 2 2 2 1 1 2 2 2 3 3 2 2 2 2 1 1 1 3 5 6 5 5 5 5
1 1 1 2 2 1 1 1 2 2 2 2 2 2 2 2 2 2 2 2 2 1 1 1 1 2 3 3 4 3 3 4 3 2 4 4 5 5 5 7 7 5 4
1 1 2 2 2 2 2 2 2 2 2 2 2 2 2 3 3 2 2 2 1 1 1 1 1 1 2 2 2 2 2 4 4 3 4 6 7 6 6 6 5 4 3
2 1 1 1 2 2 2 2 2 2 2 2 2 2 2 2 3 3 2 2 1 1 1 1 1 0 1 2 3 3 2 2 3 4 3 4 4 4 4 3 3 3 3
1 1 2 2 2 2 2 2 2 1 2 2 2 1 1 2 2 3 3 6 5 5 5 5 3 2 3 4 5 5 6 6 7 5 4 3 3 2 2 2 2 2 2
Wind_Direction
211 193 180 170 162 161 162 166 163 168 157 154 161 174 202 222 223 222 214 208 202 199 183 210 215 207 211 227 232 246 273 280 292 317 314 302 282 269 268 265 266 268 267
201 188 174 165 165 169 170 169 170 173 174 178 181 188 192 215 216 227 241 221 205 204 198 204 220 220 219 234 240 240 253 279 288 280 326 318 317 306 283 278 274 279 277
195 189 176 171 166 170 175 177 177 177 177 168 147 114 80 42 334 248 243 244 224 218 212 216 218 224 211 223 234 229 220 247 269 220 203 261 271 308 300 291 290 292 294
193 184 176 175 179 183 177 174 175 172 173 163 163 167 179 199 223 225 235 257 244 235 227 223 221 220 221 229 236 236 237 218 247 267 245 239 243 267 301 312 309 307 300
191 182 174 175 175 171 168 171 169 173 171 170 175 180 193 206 227 232 232 244 256 251 246 238 232 229 229 232 235 240 242 227 229 239 256 265 270 246 260 295 312 316 303
176 170 165 152 149 152 156 160 163 175 177 175 178 185 189 190 184 229 233 248 259 260 261 259 249 239 234 233 234 233 235 238 238 237 235 240 250 260 253 278 301 307 311
162 161 152 147 146 145 161 165 163 170 176 180 188 194 193 188 194 209 219 236 254 268 258 267 254 249 243 238 232 234 240 241 241 238 239 239 244 247 254 270 294 304 309
157 159 162 157 157 155 158 164 167 171 179 184 199 202 193 194 208 216 220 226 235 243 245 250 253 248 244 244 235 241 247 250 248 249 244 250 250 244 244 250 281 306 312
149 153 153 152 153 157 165 174 174 176 186 190 197 201 199 204 216 226 227 233 245 247 246 245 258 258 246 243 244 248 250 252 251 247 245 249 251 247 249 246 240 246 295
102 130 146 152 153 156 157 162 169 178 187 192 201 213 221 222 222 221 238 246 249 245 238 246 255 264 262 258 254 267 261 254 260 252 251 254 259 255 253 246 248 236 242
111 117 129 136 124 107 109 120 156 156 175 197 210 215 233 233 217 228 244 244 245 246 235 241 250 259 271 274 259 259 262 259 271 275 260 262 261 253 260 254 252 248 230
75 77 86 90 86 86 88 95 126 170 192 203 206 222 240 230 224 239 249 241 244 244 246 247 250 261 272 272 264 260 263 257 264 271 272 272 272 262 260 249 253 255 247
65 57 57 62 62 63 62 63 46 223 221 208 202 224 257 242 239 239 242 243 245 258 268 259 254 268 275 273 268 260 261 263 262 261 262 267 258 266 273 264 262 264 281
65 55 44 36 32 26 17 12 349 326 257 215 204 226 248 246 246 245 244 241 233 237 253 262 270 269 271 275 275 270 273 283 283 271 257 253 241 244 250 258 260 262 287
45 34 20 10 9 4 352 337 320 319 306 250 231 242 252 254 260 247 241 235 227 242 245 256 287 292 269 280 299 279 288 294 321 325 298 279 287 294 294 293 275 257 267
357 336 342 345 339 335 328 322 310 305 307 270 268 272 258 253 240 243 236 213 228 262 255 250 273 301 298 324 326 351 329 330 337 328 332 330 331 339 341 352 358 5 327
253 271 277 277 285 288 293 290 293 310 315 299 288 286 255 255 237 231 223 213 213 222 242 265 285 283 304 335 335 6 62 355 311 321 340 346 350 358 10 21 22 13 1
250 266 295 309 304 309 320 319 327 338 339 324 307 287 246 251 258 219 224 255 239 220 227 255 272 270 303 337 328 335 84 97 333 312 320 3 5 11 53 66 39 19 14
251 260 259 300 306 320 335 346 355 2 354 319 310 299 262 228 188 155 260 280 235 187 200 243 261 278 311 342 0 39 98 62 4 359 42 52 51 31 57 72 58 35 21
4 359 352 350 345 337 351 18 358 356 325 303 296 300 287 200 180 195 227 357 59 146 150 52 6 323 311 354 28 50 95 80 28 27 24 27 37 49 56 74 81 58 15
14 23 41 15 337 342 14 23 2 332 316 316 322 334 335 274 177 161 88 75 71 78 76 55 11 353 351 2 20 37 79 123 76 39 14 18 43 58 55 57 76 81 60
30 34 43 9 357 14 30 13 340 327 336 348 2 9 7 24 74 100 85 79 87 85 65 47 19 4 353 358 2 16 49 75 96 70 42 42 54 59 59 61 64 63 58
50 32 59 23 1 6 27 359 329 342 4 24 21 21 34 45 63 87 87 73 75 92 79 59 30 2 358 0 17 30 55 71 81 80 69 65 64 62 63 60 58 54 57
25 29 53 34 359 357 8 359 347 359 40 44 26 21 49 55 55 62 67 74 67 95 98 90 52 7 1 5 17 32 67 78 75 73 70 65 64 62 56 52 45 40 48
5 18 46 13 343 359 15 12 12 33 51 49 37 33 49 71 65 59 53 64 54 93 124 130 149 124 5 358 32 63 66 81 90 86 75 63 54 49 43 41 35 29 30
357 12 16 4 349 5 17 11 13 47 74 56 39 40 56 73 78 76 56 46 51 55 68 69 77 69 59 63 70 71 69 74 87 88 83 71 61 51 42 34 23 23 25
Height
1474 1476 1478 1480 1482 1484 1486 1487 1489 1490 1491 1492 1493 1493 1494 1495 1495 1495 1495 1495 1495 1495 1494 1494 1493 1492 1492 1491 1490 1489 1488 1487 1486 1484 1482 1481 1480 1479 1478 1477 1477 1476 1475
1470 1472 1474 1476 1478 1480 1482 1483 1485 1487 1488 1489 1490 1491 1492 1492 1492 1493 1492 1492 1492 1492 1491 1491 1490 1489 1489 1488 1487 1486 1485 1484 1484 1483 1480 1478 1477 1475 1475 1474 1473 1472 1472
1465 1467 1470 1472 1474 1476 1478 1479 1481 1483 1485 1486 1487 1488 1489 1489 1489 1489 1489 1489 1489 1489 1488 1488 1487 1486 1486 1485 1484 1484 1483 1482 1482 1481 1481 1479 1475 1473 1471 1471 1470 1470 1468
1462 1463 1465 1468 1470 1472 1474 1476 1478 1480 1482 1483 1484 1484 1484 1484 1485 1485 1486 1486 1486 1486 1485 1485 1484 1484 1483 1482 1482 1481 1480 1480 1479 1479 1478 1478 1476 1474 1470 1468 1468 1467 1465
1458 1460 1461 1464 1466 1469 1471 1473 1475 1477 1478 1479 1480 1481 1482 1482 1483 1483 1483 1483 1483 1483 1482 1482 1481 1480 1480 1479 1479 1478 1478 1477 1476 1476 1475 1474 1473 1472 1470 1466 1464 1463 1462
1454 1457 1459 1461 1463 1466 1468 1470 1472 1473 1475 1476 1477 1478 1479 1479 1480 1480 1480 1479 1479 1479 1479 1479 1478 1477 1477 1476 1476 1475 1474 1474 1473 1473 1472 1471 1470 1469 1467 1465 1462 1460 1459
1452 1454 1456 1458 1460 1462 1465 1466 1468 1470 1472 1473 1474 1475 1476 1476 1477 1477 1477 1476 1476 1476 1475 1475 1475 1474 1474 1473 1473 1472 1471 1471 1470 1469 1468 1468 1467 1466 1465 1463 1460 1458 1456
1451 1452 1454 1456 1458 1460 1462 1464 1465 1467 1469 1470 1471 1472 1473 1474 1474 1474 1474 1474 1473 1473 1473 1472 1472 1471 1471 1470 1470 1469 1468 1467 1466 1466 1465 1465 1464 1463 1462 1461 1459 1455 1453
1450 1451 1453 1455 1456 1458 1459 1461 1462 1464 1465 1467 1468 1469 1470 1470 1471 1471 1471 1471 1471 1470 1470 1469 1469 1468 1468 1467 1466 1465 1465 1464 1463 1463 1462 1461 1461 1460 1460 1459 1458 1456 1452
1449 1451 1452 1454 1455 1456 1457 1459 1460 1461 1463 1464 1465 1466 1467 1468 1468 1468 1468 1468 1468 1467 1467 1466 1466 1465 1465 1464 1463 1462 1462 1461 1460 1460 1459 1458 1458 1457 1456 1456 1455 1454 1452
1449 1450 1452 1453 1454 1455 1456 1457 1458 1459 1460 1461 1462 1463 1464 1464 1465 1465 1465 1465 1465 1465 1464 1463 1463 1462 1462 1461 1460 1459 1459 1458 1457 1456 1456 1455 1455 1454 1453 1452 1452 1451 1449
1450 1451 1451 1452 1453 1454 1454 1455 1456 1457 1458 1459 1460 1460 1461 1461 1461 1462 1462 1462 1462 1462 1461 1461 1460 1460 1459 1458 1457 1456 1455 1455 1454 1453 1453 1452 1452 1451 1450 1449 1448 1448 1447
1451 1451 1451 1452 1452 1453 1453 1454 1455 1455 1456 1457 1457 1458 1458 1458 1458 1458 1459 1459 1459 1458 1458 1458 1457 1457 1456 1455 1454 1454 1453 1452 1451 1451 1450 1449 1449 1448 1447 1447 1446 1445 1444
1451 1451 1452 1452 1452 1453 1453 1454 1454 1454 1455 1455 1455 1455 1455 1455 1455 1456 1456 1456 1456 1456 1455 1455 1454 1454 1453 1453 1452 1451 1450 1449 1449 1448 1448 1447 1446 1445 1445 1444 1444 1443 1442
1452 1452 1452 1451 1452 1452 1452 1453 1453 1453 1453 1453 1453 1453 1453 1453 1453 1453 1453 1453 1453 1453 1453 1452 1452 1451 1451 1450 1450 1449 1448 1447 1446 1446 1445 1445 1444 1444 1443 1442 1442 1441 1440
1452 1452 1451 1451 1451 1451 1451 1451 1451 1451 1451 1451 1451 1451 1451 1451 1450 1450 1450 1450 1450 1450 1450 1450 1449 1449 1448 1448 1448 1447 1446 1445 1444 1443 1443 1443 1442 1442 1441 1441 1440 1440 1438
1451 1451 1450 1450 1450 1450 1449 1449 1449 1449 1449 1449 1449 1449 1448 1448 1448 1448 1448 1448 1448 1448 1448 1447 1447 1447 1446 1446 1446 1445 1444 1443 1443 1442 1441 1440 1440 1440 1439 1439 1439 1438 1437
1449 1449 1449 1449 1448 1448 1448 1448 1448 1447 1447 1447 1447 1447 1446 1446 1446 1445 1445 1445 1445 1445 1445 1445 1445 1445 1445 1444 1444 1444 1443 1442 1441 1440 1440 1439 1439 1438 1438 1437 1437 1436 1435
1448 1447 1447 1447 1446 1446 1446 1446 1445 1445 1445 1445 1445 1445 1444 1444 1443 1443 1443 1443 1443 1444 1444 1444 1443 1443 1443 1443 1442 1442 1441 1440 1439 1439 1438 1438 1438 1437 1437 1436 1435 1434 1434
1446 1446 1445 1445 1444 1444 1444 1444 1443 1443 1443 1443 1443 1443 1442 1442 1442 1442 1442 1442 1442 1442 1442 1442 1442 1442 1441 1441 1441 1440 1439 1438 1438 1437 1437 1437 1437 1436 1436 1435 1434 1433 1433
1444 1444 1443 1443 1443 1442 1442 1442 1441 1441 1441 1441 1441 1441 1440 1440 1440 1440 1440 1440 1441 1441 1441 1441 1440 1440 1440 1439 1439 1438 1438 1437 1437 1436 1436 1436 1436 1436 1435 1435 1434 1433 1433
1441 1441 1441 1441 1441 1440 1440 1440 1439 1439 1439 1439 1439 1439 1439 1438 1438 1438 1439 1439 1439 1439 1439 1439 1438 1438 1438 1438 1437 1437 1437 1436 1436 1435 1435 1435 1435 1435 1434 1434 1433 1433 1432
1439 1439 1439 1439 1439 1439 1438 1438 1438 1437 1437 1437 1437 1437 1437 1437 1437 1437 1437 1437 1437 1437 1437 1437 1437 1437 1437 1436 1436 1436 1435 1435 1435 1435 1435 1435 1435 1434 1434 1433 1433 1433 1432
1437 1437 1437 1437 1436 1437 1436 1436 1436 1436 1436 1436 1435 1435 1435 1435 1435 1435 1435 1435 1435 1435 1435 1435 1435 1435 1435 1435 1435 1434 1434 1434 1434 1434 1434 1434 1434 1434 1434 1433 1433 1432 1432
1435 1435 1435 1435 1435 1435 1435 1435 1434 1434 1434 1434 1434 1434 1434 1434 1434 1434 1434 1434 1434 1434 1434 1434 1434 1434 1434 1434 1434 1434 1433 1433 1433 1433 1433 1433 1433 1433 1433 1433 1433 1432 1432
1434 1434 1434 1433 1433 1433 1432 1433 1433 1433 1432 1432 1432 1432 1432 1432 1432 1432 1433 1433 1433 1433 1433 1434 1434 1434 1434 1434 1433 1433 1433 1433 1433 1433 1432 1433 1433 1433 1433 1433 1432 1432 1431